Location: Cazarilh
(42.9578°N, 0.5819°E)
Time: 04:32:46
(UTC+00:00)

SWAS - Pass Details

Date: 11 December 2019
Orbit: 579 x 593 km, 69.9° (Epoch: 24 January)

Event Time Altitude Azimuth Distance (km) Brightness Sun altitude
Exits shadow 05:35:35 18° 226° (SW) 1,472 6.2 -18.1°
Maximum altitude 05:38:37 54° 299° (WNW) 719 4.5 -17.5°
Drops below altitude 10° 05:42:52 10° 18° (NNE) 1,929 7.1 -16.8°
Sets 05:45:10 0° 23° (NNE) 2,836 8.0 -16.4°
